N87LA PADK-PADU

Flight info

Callsign N87LA
Flight time 1h 24m
Altitude 35000
Route SIYNY G8 DUT
Aircraft STAR/L-SDFGRWY/S

Departure

Time 2026-04-13 23:56
Airport Adak Airport (PADK)

Arrival

Time 2026-04-14 01:20
Airport Tom Madsen (Dutch Harbor) Airport (PADU)
Time Latitude Longitude Altitude Speed Heading
2026-04-13 23:36 51.87370 -176.64591 10 ft 0 kts 360°
2026-04-13 23:46 51.87411 -176.64594 10 ft 11 kts 343°
2026-04-13 23:47 51.87480 -176.64605 10 ft 11 kts 14°
2026-04-13 23:47 51.87577 -176.64559 11 ft 17 kts 17°
2026-04-13 23:47 51.87679 -176.64506 12 ft 14 kts 19°
2026-04-13 23:47 51.87766 -176.64458 12 ft 14 kts 16°
2026-04-13 23:48 51.87861 -176.64413 12 ft 14 kts 18°
2026-04-13 23:48 51.87944 -176.64372 12 ft 11 kts 15°
2026-04-13 23:48 51.88016 -176.64341 11 ft 11 kts 14°
2026-04-13 23:48 51.88094 -176.64334 9 ft 12 kts 359°
2026-04-13 23:49 51.88168 -176.64333 10 ft 8 kts
2026-04-13 23:49 51.88185 -176.64333 11 ft 0 kts
2026-04-13 23:51 51.88186 -176.64333 11 ft 2 kts
2026-04-13 23:51 51.88256 -176.64331 12 ft 17 kts
2026-04-13 23:52 51.88353 -176.64254 10 ft 19 kts 56°
2026-04-13 23:52 51.88417 -176.64075 13 ft 18 kts 61°
2026-04-13 23:52 51.88476 -176.63908 13 ft 16 kts 59°
2026-04-13 23:52 51.88523 -176.63778 15 ft 13 kts 60°
2026-04-13 23:53 51.88579 -176.63618 12 ft 20 kts 59°
2026-04-13 23:53 51.88656 -176.63400 10 ft 23 kts 61°
2026-04-13 23:53 51.88737 -176.63166 8 ft 24 kts 61°
2026-04-13 23:53 51.88799 -176.62944 7 ft 19 kts 96°
2026-04-13 23:54 51.88805 -176.62829 8 ft 4 kts 67°
2026-04-13 23:54 51.88824 -176.62793 9 ft 5 kts 27°
2026-04-13 23:54 51.88853 -176.62798 10 ft 3 kts 316°
2026-04-13 23:54 51.88856 -176.62813 10 ft 0 kts 264°
2026-04-13 23:55 51.88855 -176.62816 10 ft 1 kts 249°
2026-04-13 23:55 51.88854 -176.62818 10 ft 0 kts 238°
2026-04-13 23:55 51.88852 -176.62824 10 ft 7 kts 241°
2026-04-13 23:55 51.88740 -176.63154 8 ft 55 kts 241°
2026-04-13 23:56 51.88492 -176.63881 36 ft 88 kts 238°
2026-04-13 23:56 51.88220 -176.64753 336 ft 93 kts 236°
2026-04-13 23:56 51.87682 -176.65324 835 ft 100 kts 173°
2026-04-13 23:56 51.87288 -176.64314 1472 ft 137 kts 100°
2026-04-13 23:57 51.87646 -176.62702 1920 ft 165 kts 69°
2026-04-13 23:57 51.88128 -176.60959 2474 ft 176 kts 71°
2026-04-13 23:57 51.88624 -176.59164 3196 ft 180 kts 69°
2026-04-13 23:57 51.89234 -176.57297 3832 ft 192 kts 64°
2026-04-13 23:58 51.89955 -176.55461 4611 ft 199 kts 59°
2026-04-13 23:58 51.90776 -176.53481 4986 ft 225 kts 61°
2026-04-13 23:58 51.91560 -176.51319 5788 ft 219 kts 65°
2026-04-13 23:58 51.92200 -176.49116 6585 ft 216 kts 75°
2026-04-13 23:59 51.92715 -176.46834 7384 ft 215 kts 77°
2026-04-13 23:59 51.93269 -176.44570 8194 ft 217 kts 73°
2026-04-13 23:59 51.93860 -176.42316 9014 ft 217 kts 74°
2026-04-13 23:59 51.94422 -176.40037 9825 ft 217 kts 76°
2026-04-14 00:00 51.94981 -176.37756 10568 ft 219 kts 75°
2026-04-14 00:00 51.95546 -176.35505 11318 ft 219 kts 75°
2026-04-14 00:00 51.96119 -176.33213 12099 ft 220 kts 75°
2026-04-14 00:00 51.96688 -176.30909 12895 ft 220 kts 75°
2026-04-14 00:01 51.97260 -176.28600 13705 ft 221 kts 75°
2026-04-14 00:01 51.97835 -176.26280 14407 ft 223 kts 75°
2026-04-14 00:01 51.98416 -176.23928 15074 ft 226 kts 73°
2026-04-14 00:01 51.99003 -176.21551 15739 ft 229 kts 72°
2026-04-14 00:02 51.99591 -176.19180 16396 ft 230 kts 72°
2026-04-14 00:02 52.00189 -176.16759 17077 ft 232 kts 72°
2026-04-14 00:02 52.00791 -176.14308 17751 ft 235 kts 71°
2026-04-14 00:02 52.01399 -176.11840 18407 ft 236 kts 71°
2026-04-14 00:03 52.02011 -176.09351 18990 ft 238 kts 71°
2026-04-14 00:03 52.02627 -176.06857 19578 ft 238 kts 71°
2026-04-14 00:03 52.03235 -176.04354 20195 ft 238 kts 71°
2026-04-14 00:03 52.03853 -176.01840 20744 ft 241 kts 71°
2026-04-14 00:04 52.04475 -175.99314 21330 ft 242 kts 71°
2026-04-14 00:04 52.05094 -175.96758 21881 ft 243 kts 72°
2026-04-14 00:04 52.05711 -175.94230 22419 ft 245 kts 71°
2026-04-14 00:04 52.06343 -175.91644 22947 ft 248 kts 72°
2026-04-14 00:05 52.06982 -175.89018 23461 ft 251 kts 72°
2026-04-14 00:05 52.07627 -175.86365 23915 ft 253 kts 72°
2026-04-14 00:05 52.08276 -175.83700 24357 ft 255 kts 73°
2026-04-14 00:05 52.08926 -175.81015 24796 ft 256 kts 73°
2026-04-14 00:06 52.09581 -175.78310 25228 ft 258 kts 73°
2026-04-14 00:06 52.10240 -175.75592 25660 ft 259 kts 74°
2026-04-14 00:06 52.10901 -175.72855 26091 ft 261 kts 74°
2026-04-14 00:06 52.11566 -175.70098 26510 ft 262 kts 75°
2026-04-14 00:07 52.12224 -175.67370 26942 ft 264 kts 75°
2026-04-14 00:07 52.12895 -175.64582 27364 ft 265 kts 75°
2026-04-14 00:07 52.13569 -175.61780 27782 ft 267 kts 76°
2026-04-14 00:07 52.14247 -175.58960 28207 ft 268 kts 76°
2026-04-14 00:08 52.14930 -175.56117 28571 ft 270 kts 77°
2026-04-14 00:08 52.15615 -175.53258 28969 ft 272 kts 78°
2026-04-14 00:08 52.16299 -175.50381 29380 ft 274 kts 78°
2026-04-14 00:08 52.16993 -175.47487 29775 ft 275 kts 78°
2026-04-14 00:09 52.17690 -175.44571 30154 ft 277 kts 78°
2026-04-14 00:09 52.18387 -175.41637 30466 ft 278 kts 79°
2026-04-14 00:09 52.19081 -175.38727 30771 ft 280 kts 79°
2026-04-14 00:09 52.19788 -175.35753 31072 ft 282 kts 80°
2026-04-14 00:10 52.20495 -175.32767 31361 ft 284 kts 80°
2026-04-14 00:10 52.21221 -175.29754 31647 ft 286 kts 80°
2026-04-14 00:10 52.21945 -175.26728 31915 ft 287 kts 81°
2026-04-14 00:10 52.22669 -175.23679 32185 ft 289 kts 81°
2026-04-14 00:11 52.23399 -175.20622 32432 ft 290 kts 81°
2026-04-14 00:11 52.24131 -175.17545 32676 ft 292 kts 81°
2026-04-14 00:11 52.24856 -175.14490 32914 ft 293 kts 82°
2026-04-14 00:11 52.25592 -175.11388 33140 ft 294 kts 82°
2026-04-14 00:12 52.26331 -175.08267 33365 ft 295 kts 82°
2026-04-14 00:12 52.27073 -175.05128 33583 ft 296 kts 81°
2026-04-14 00:12 52.27812 -175.01991 33774 ft 296 kts 81°
2026-04-14 00:12 52.28557 -174.98850 33985 ft 297 kts 81°
2026-04-14 00:13 52.29298 -174.95695 34153 ft 298 kts 81°
2026-04-14 00:13 52.30038 -174.92538 34318 ft 298 kts 81°
2026-04-14 00:13 52.30784 -174.89374 34479 ft 299 kts 81°
2026-04-14 00:13 52.31527 -174.86201 34632 ft 299 kts 81°
2026-04-14 00:14 52.32261 -174.83066 34794 ft 299 kts 81°
2026-04-14 00:14 52.33002 -174.79890 34892 ft 302 kts 81°
2026-04-14 00:14 52.34527 -174.73355 34963 ft 314 kts 80°
2026-04-14 00:15 52.36111 -174.66542 34971 ft 326 kts 79°
2026-04-14 00:15 52.37746 -174.59491 34994 ft 336 kts 79°
2026-04-14 00:16 52.39418 -174.52249 34994 ft 344 kts 79°
2026-04-14 00:16 52.41107 -174.44913 35001 ft 349 kts 79°
2026-04-14 00:17 52.42824 -174.37424 35032 ft 353 kts 78°
2026-04-14 00:17 52.44557 -174.29842 35027 ft 357 kts 78°
2026-04-14 00:18 52.46298 -174.22199 35026 ft 359 kts 78°
2026-04-14 00:18 52.48030 -174.14564 35022 ft 361 kts 78°
2026-04-14 00:19 52.49778 -174.06836 35017 ft 362 kts 78°
2026-04-14 00:19 52.51522 -173.99082 34987 ft 362 kts 78°
2026-04-14 00:20 52.53270 -173.91304 34980 ft 363 kts 78°
2026-04-14 00:20 52.55012 -173.83514 34982 ft 364 kts 78°
2026-04-14 00:21 52.56740 -173.75753 34993 ft 364 kts 78°
2026-04-14 00:21 52.58478 -173.67918 34993 ft 365 kts 78°
2026-04-14 00:22 52.60213 -173.60072 34995 ft 365 kts 78°
2026-04-14 00:22 52.61945 -173.52208 35003 ft 366 kts 78°
2026-04-14 00:23 52.63669 -173.44338 34978 ft 365 kts 77°
2026-04-14 00:23 52.65374 -173.36546 35003 ft 364 kts 77°
2026-04-14 00:24 52.67084 -173.28698 35010 ft 364 kts 77°
2026-04-14 00:24 52.68789 -173.20841 35003 ft 364 kts 78°
2026-04-14 00:25 52.70487 -173.12980 35014 ft 364 kts 78°
2026-04-14 00:25 52.72181 -173.05111 35018 ft 364 kts 78°
2026-04-14 00:26 52.73869 -172.97239 35011 ft 364 kts 78°
2026-04-14 00:26 52.75539 -172.89417 35008 ft 363 kts 77°
2026-04-14 00:27 52.77212 -172.81549 35016 ft 365 kts 77°
2026-04-14 00:27 52.78897 -172.73608 35041 ft 368 kts 77°
2026-04-14 00:28 52.80583 -172.65623 35029 ft 368 kts 77°
2026-04-14 00:28 52.82247 -172.57712 35026 ft 366 kts 77°
2026-04-14 00:29 52.83912 -172.49761 35028 ft 366 kts 77°
2026-04-14 00:29 52.85569 -172.41816 35030 ft 365 kts 77°
2026-04-14 00:30 52.87230 -172.33850 35022 ft 366 kts 76°
2026-04-14 00:30 52.88871 -172.25898 35038 ft 365 kts 76°
2026-04-14 00:31 52.90496 -172.18011 35034 ft 363 kts 76°
2026-04-14 00:31 52.92123 -172.10090 35034 ft 363 kts 77°
2026-04-14 00:32 52.94547 -171.98225 35043 ft 363 kts 77°
2026-04-14 00:33 52.96159 -171.90299 35042 ft 362 kts 77°
2026-04-14 00:33 52.97750 -171.82428 35047 ft 362 kts 76°
2026-04-14 00:34 52.99349 -171.74511 35049 ft 361 kts 76°
2026-04-14 00:34 53.00939 -171.66603 35048 ft 361 kts 76°
2026-04-14 00:35 53.02519 -171.58702 35059 ft 361 kts 76°
2026-04-14 00:35 53.04087 -171.50832 35059 ft 361 kts 76°
2026-04-14 00:36 53.05662 -171.42892 35062 ft 362 kts 76°
2026-04-14 00:36 53.07230 -171.34961 35063 ft 361 kts 76°
2026-04-14 00:37 53.08787 -171.27044 35052 ft 359 kts 75°
2026-04-14 00:37 53.10332 -171.19158 35070 ft 358 kts 75°
2026-04-14 00:38 53.11862 -171.11330 35071 ft 358 kts 76°
2026-04-14 00:38 53.13394 -171.03452 35070 ft 358 kts 76°
2026-04-14 00:39 53.14919 -170.95576 35078 ft 357 kts 76°
2026-04-14 00:39 53.16440 -170.87686 35085 ft 358 kts 76°
2026-04-14 00:40 53.17958 -170.79782 35081 ft 358 kts 76°
2026-04-14 00:40 53.19460 -170.71924 35075 ft 357 kts 75°
2026-04-14 00:41 53.20963 -170.64029 35079 ft 357 kts 75°
2026-04-14 00:41 53.22461 -170.56134 35080 ft 356 kts 75°
2026-04-14 00:42 53.23951 -170.48248 35091 ft 356 kts 75°
2026-04-14 00:42 53.25435 -170.40357 35092 ft 356 kts 75°
2026-04-14 00:43 53.26915 -170.32452 35095 ft 356 kts 75°
2026-04-14 00:43 53.28379 -170.24603 35094 ft 356 kts 75°
2026-04-14 00:44 53.29845 -170.16700 35085 ft 356 kts 75°
2026-04-14 00:44 53.31306 -170.08802 35100 ft 355 kts 75°
2026-04-14 00:45 53.32762 -170.00902 35099 ft 355 kts 75°
2026-04-14 00:45 53.34211 -169.92997 35103 ft 356 kts 75°
2026-04-14 00:46 53.35656 -169.85083 35107 ft 356 kts 75°
2026-04-14 00:46 53.37087 -169.77206 35105 ft 356 kts 75°
2026-04-14 00:47 53.38522 -169.69276 35108 ft 356 kts 75°
2026-04-14 00:47 53.39951 -169.61336 35106 ft 355 kts 74°
2026-04-14 00:48 53.41376 -169.53405 35114 ft 355 kts 74°
2026-04-14 00:48 53.42785 -169.45523 35115 ft 355 kts 74°
2026-04-14 00:49 53.44212 -169.37495 34640 ft 372 kts 74°
2026-04-14 00:49 53.44964 -169.33251 34169 ft 386 kts 74°
2026-04-14 00:49 53.45737 -169.28881 33634 ft 396 kts 74°
2026-04-14 00:49 53.46528 -169.24399 33100 ft 404 kts 74°
2026-04-14 00:50 53.47331 -169.19835 32586 ft 411 kts 74°
2026-04-14 00:50 53.48142 -169.15211 32074 ft 416 kts 74°
2026-04-14 00:50 53.48962 -169.10530 31573 ft 419 kts 74°
2026-04-14 00:50 53.49771 -169.05894 31087 ft 418 kts 74°
2026-04-14 00:51 53.50586 -169.01218 30604 ft 417 kts 74°
2026-04-14 00:51 53.51396 -168.96551 30132 ft 416 kts 74°
2026-04-14 00:51 53.52204 -168.91890 29569 ft 415 kts 74°
2026-04-14 00:51 53.53006 -168.87244 28982 ft 414 kts 74°
2026-04-14 00:52 53.53805 -168.82607 28392 ft 412 kts 74°
2026-04-14 00:52 53.54600 -168.77983 27813 ft 410 kts 74°
2026-04-14 00:52 53.55386 -168.73397 27253 ft 406 kts 74°
2026-04-14 00:52 53.56164 -168.68846 26698 ft 403 kts 74°
2026-04-14 00:53 53.56931 -168.64347 26157 ft 399 kts 74°
2026-04-14 00:53 53.57693 -168.59870 25623 ft 396 kts 74°
2026-04-14 00:53 53.58437 -168.55484 25108 ft 393 kts 74°
2026-04-14 00:53 53.59181 -168.51080 24591 ft 390 kts 73°
2026-04-14 00:54 53.59923 -168.46695 24081 ft 389 kts 73°
2026-04-14 00:54 53.60659 -168.42325 23557 ft 387 kts 73°
2026-04-14 00:54 53.61390 -168.37967 22960 ft 386 kts 73°
2026-04-14 00:54 53.62117 -168.33636 22375 ft 383 kts 73°
2026-04-14 00:55 53.62835 -168.29334 21805 ft 381 kts 73°
2026-04-14 00:55 53.63540 -168.25109 21253 ft 378 kts 73°
2026-04-14 00:55 53.64253 -168.20818 20689 ft 374 kts 73°
2026-04-14 00:55 53.64942 -168.16668 20159 ft 371 kts 73°
2026-04-14 00:56 53.65635 -168.12479 19631 ft 369 kts 73°
2026-04-14 00:56 53.66318 -168.08340 19114 ft 366 kts 73°
2026-04-14 00:56 53.66998 -168.04214 18607 ft 363 kts 73°
2026-04-14 00:56 53.67669 -168.00126 18043 ft 361 kts 73°
2026-04-14 00:57 53.68338 -167.96054 17455 ft 358 kts 73°
2026-04-14 00:57 53.68951 -167.91998 16941 ft 355 kts 78°
2026-04-14 00:57 53.69281 -167.87914 16515 ft 350 kts 85°
2026-04-14 00:57 53.69412 -167.83834 16084 ft 347 kts 88°
2026-04-14 00:58 53.69491 -167.79836 15690 ft 343 kts 89°
2026-04-14 00:58 53.69527 -167.75795 15313 ft 339 kts 90°
2026-04-14 00:58 53.69524 -167.71885 14944 ft 336 kts 91°
2026-04-14 00:58 53.69499 -167.67957 14552 ft 335 kts 90°
2026-04-14 00:59 53.69484 -167.64035 14120 ft 334 kts 92°
2026-04-14 00:59 53.69357 -167.60116 13573 ft 335 kts 96°
2026-04-14 00:59 53.69151 -167.56171 12873 ft 339 kts 94°
2026-04-14 00:59 53.69137 -167.52219 12518 ft 331 kts 88°
2026-04-14 01:00 53.69223 -167.48357 12040 ft 330 kts 87°
2026-04-14 01:00 53.69457 -167.44517 11507 ft 330 kts 82°
2026-04-14 01:00 53.69750 -167.40679 10952 ft 326 kts 82°
2026-04-14 01:00 53.69997 -167.37036 10414 ft 308 kts 82°
2026-04-14 01:01 53.70240 -167.33493 9848 ft 294 kts 82°
2026-04-14 01:01 53.70608 -167.30227 9243 ft 282 kts 69°
2026-04-14 01:01 53.71540 -167.27449 8709 ft 266 kts 46°
2026-04-14 01:01 53.72891 -167.25425 8165 ft 256 kts 34°
2026-04-14 01:02 53.74315 -167.23684 7594 ft 250 kts 30°
2026-04-14 01:02 53.75755 -167.22076 7065 ft 245 kts 28°
2026-04-14 01:02 53.77200 -167.20567 6535 ft 242 kts 27°
2026-04-14 01:02 53.78666 -167.19279 6059 ft 233 kts 20°
2026-04-14 01:03 53.80144 -167.18239 5574 ft 228 kts 17°
2026-04-14 01:03 53.81614 -167.17255 5142 ft 224 kts 15°
2026-04-14 01:03 53.83082 -167.16322 4679 ft 230 kts 17°
2026-04-14 01:03 53.84597 -167.15298 4306 ft 245 kts 19°
2026-04-14 01:04 53.86188 -167.14070 3929 ft 256 kts 23°
2026-04-14 01:04 53.87801 -167.12695 3603 ft 262 kts 28°
2026-04-14 01:04 53.89396 -167.11159 3301 ft 265 kts 30°
2026-04-14 01:04 53.90965 -167.09495 3026 ft 265 kts 36°
2026-04-14 01:05 53.92433 -167.07630 2826 ft 261 kts 40°
2026-04-14 01:05 53.93830 -167.05705 2849 ft 256 kts 43°
2026-04-14 01:05 53.95130 -167.03654 2778 ft 256 kts 48°
2026-04-14 01:05 53.96323 -167.01392 2613 ft 259 kts 53°
2026-04-14 01:06 53.97428 -166.99017 2501 ft 258 kts 57°
2026-04-14 01:06 53.98464 -166.96559 2495 ft 253 kts 59°
2026-04-14 01:06 53.99417 -166.94139 2688 ft 241 kts 54°
2026-04-14 01:06 54.00813 -166.92696 2914 ft 241 kts 17°
2026-04-14 01:07 54.02422 -166.91877 2942 ft 241 kts 17°
2026-04-14 01:07 54.04012 -166.90968 2973 ft 242 kts 18°
2026-04-14 01:07 54.05575 -166.89887 2954 ft 244 kts 22°
2026-04-14 01:07 54.07124 -166.88737 3004 ft 243 kts 23°
2026-04-14 01:08 54.08642 -166.87480 3027 ft 243 kts 28°
2026-04-14 01:08 54.10081 -166.86022 3027 ft 244 kts 34°
2026-04-14 01:08 54.11416 -166.84258 3068 ft 243 kts 41°
2026-04-14 01:08 54.12693 -166.82296 2877 ft 251 kts 45°
2026-04-14 01:09 54.13933 -166.80164 2783 ft 254 kts 47°
2026-04-14 01:09 54.15087 -166.77899 2779 ft 250 kts 54°
2026-04-14 01:09 54.16131 -166.75508 2657 ft 254 kts 58°
2026-04-14 01:09 54.17231 -166.73123 2566 ft 257 kts 47°
2026-04-14 01:10 54.18482 -166.70979 2581 ft 251 kts 52°
2026-04-14 01:10 54.19412 -166.68498 2591 ft 246 kts 66°
2026-04-14 01:10 54.20239 -166.65962 2543 ft 246 kts 60°
2026-04-14 01:10 54.21166 -166.63607 2413 ft 239 kts 59°
2026-04-14 01:11 54.22054 -166.61265 2294 ft 231 kts 59°
2026-04-14 01:11 54.22881 -166.58959 2208 ft 223 kts 63°
2026-04-14 01:11 54.23347 -166.56544 2136 ft 211 kts 89°
2026-04-14 01:11 54.23030 -166.54164 1915 ft 205 kts 121°
2026-04-14 01:12 54.22125 -166.52277 1506 ft 210 kts 141°
2026-04-14 01:12 54.20884 -166.51078 1417 ft 200 kts 163°
2026-04-14 01:12 54.20010 -166.50763 1465 ft 190 kts 170°
2026-04-14 01:12 54.18369 -166.50012 1466 ft 180 kts 176°
2026-04-14 01:13 54.17128 -166.50037 1463 ft 178 kts 185°
2026-04-14 01:13 54.15903 -166.50303 1463 ft 177 kts 188°
2026-04-14 01:13 54.14683 -166.50627 1462 ft 177 kts 188°
2026-04-14 01:13 54.13466 -166.50923 1470 ft 176 kts 187°
2026-04-14 01:14 54.12258 -166.51188 1470 ft 174 kts 187°
2026-04-14 01:14 54.11468 -166.51356 1472 ft 173 kts 187°
2026-04-14 01:14 54.10264 -166.51605 1476 ft 176 kts 186°
2026-04-14 01:14 54.08627 -166.51940 1477 ft 181 kts 186°
2026-04-14 01:15 54.07371 -166.52200 1474 ft 183 kts 187°
2026-04-14 01:15 54.06118 -166.52460 1474 ft 180 kts 187°
2026-04-14 01:15 54.04881 -166.52713 1476 ft 178 kts 186°
2026-04-14 01:15 54.03656 -166.52965 1478 ft 177 kts 187°
2026-04-14 01:16 54.02846 -166.53131 1482 ft 177 kts 186°
2026-04-14 01:16 54.01656 -166.53378 1477 ft 168 kts 186°
2026-04-14 01:16 54.00548 -166.53725 1518 ft 156 kts 194°
2026-04-14 01:16 53.99611 -166.54330 1509 ft 133 kts 203°
2026-04-14 01:18 53.94251 -166.57794 1568 ft 108 kts 189°
2026-04-14 01:18 53.93508 -166.57824 1643 ft 113 kts 176°
2026-04-14 01:19 53.92679 -166.57847 1442 ft 115 kts 196°
2026-04-14 01:19 53.91989 -166.57861 1164 ft 101 kts 146°
2026-04-14 01:19 53.91434 -166.56981 561 ft 114 kts 137°
2026-04-14 01:19 53.90853 -166.56076 215 ft 111 kts 138°
2026-04-14 01:20 53.90309 -166.55186 41 ft 98 kts 137°
2026-04-14 01:20 53.89888 -166.54493 16 ft 73 kts 135°
2026-04-14 01:20 53.89651 -166.54103 17 ft 23 kts 136°
2026-04-14 01:20 53.89610 -166.54044 17 ft 8 kts 154°
2026-04-14 01:21 53.89578 -166.54063 17 ft 6 kts 226°
2026-04-14 01:21 53.89555 -166.54129 18 ft 8 kts 268°
2026-04-14 01:21 53.89557 -166.54211 17 ft 5 kts 304°
2026-04-14 01:21 53.89564 -166.54222 17 ft 0 kts 318°